Keahole Point, HI

7:06 PM HST on June 26, 2017 (GMT -1000)
Kona International At Keahole

Weather History for PHKO - March, 2014

Change the Weather History Date:

Sunday, March 9, 2014

  Actual Average Record
Temperature  
Mean Temperature 76 °F -  
Max Temperature 82 °F 79 °F 89 °F (1986)
Min Temperature 70 °F 67 °F 65 °F (1985)
Cooling Degree Days 11    
Growing Degree Days 26 (Base 50)    
Moisture  
Dew Point 67 °F    
Average Humidity 70    
Maximum Humidity 84    
Minimum Humidity 54    
Precipitation  
Precipitation 0.00 in - - ()
Sea Level Pressure  
Sea Level Pressure 30.01 in    
Wind  
Wind Speed 7 mph (SE)    
Max Wind Speed 13 mph    
Max Gust Speed -    
Visibility 10 miles    
Events      
Averages and records for this station are not official NWS values.
T = Trace of Precipitation, MM = Missing Value Source: NWS Daily Summary

Daily Weather History Graph

Daily Weather History Graph

Search for Another Location

Airport or City:

Trip Planner

Search our weather history database for the weather conditions in past years. The results will help you decide how hot, cold, wet, or windy it might be!

Date:

Astronomy

Mar. 09, 2014 Rise Set
Actual Time 6:37 AM HST 6:32 PM HST
Civil Twilight 6:15 AM HST 6:54 PM HST
Nautical Twilight 5:49 AM HST 7:19 PM HST
Astronomical Twilight 5:24 AM HST 7:45 PM HST
Moon 1:06 PM HST (3/9) 1:39 AM HST (3/9)
Length of Visible Light 12h 38m
Length of Day
11h 54m
Waxing Gibbous, 63% of the Moon is Illuminated
Mar 9
Waxing Gibbous
Mar 16
Full
Mar 23
Last Quarter
Mar 30
New
Apr 6
First Quarter

Hourly Weather History & Observations

Time (HST) Temp. Heat Index Dew Point Humidity Pressure Visibility Wind Dir Wind Speed Gust Speed Precip Events Conditions
12:53 AM 75.0 °F - 66.9 °F 76% 30.03 in 10.0 mi ESE 9.2 mph - N/A   Scattered Clouds
1:53 AM 73.9 °F - 66.0 °F 76% 30.02 in 10.0 mi ESE 8.1 mph - N/A   Mostly Cloudy
2:53 AM 73.0 °F - 66.0 °F 79% 30.00 in 10.0 mi SE 4.6 mph - N/A   Mostly Cloudy
3:53 AM 73.0 °F - 66.0 °F 79% 30.00 in 10.0 mi East 4.6 mph - N/A   Clear
4:53 AM 73.0 °F - 64.9 °F 76% 30.01 in 10.0 mi East 5.8 mph - N/A   Mostly Cloudy
5:53 AM 72.0 °F - 64.9 °F 78% 30.01 in 10.0 mi ENE 3.5 mph - N/A   Clear
6:53 AM 70.0 °F - 64.9 °F 84% 30.03 in 10.0 mi ENE 5.8 mph - N/A   Mostly Cloudy
7:53 AM 77.0 °F - 66.9 °F 71% 30.04 in 10.0 mi NE 4.6 mph - N/A   Scattered Clouds
8:53 AM 79.0 °F - 66.9 °F 66% 30.05 in 10.0 mi WNW 3.5 mph - N/A   Clear
9:53 AM 80.1 °F 82.1 °F 66.0 °F 62% 30.06 in 10.0 mi NW 4.6 mph - N/A   Clear
10:53 AM 82.9 °F 84.6 °F 64.9 °F 54% 30.04 in 10.0 mi NNW 12.7 mph - N/A   Scattered Clouds
11:53 AM 80.1 °F 82.9 °F 69.1 °F 69% 30.03 in 10.0 mi WNW 10.4 mph - N/A   Scattered Clouds
12:53 PM 81.0 °F 83.8 °F 68.0 °F 65% 30.00 in 10.0 mi West 6.9 mph - N/A   Clear
1:53 PM 82.0 °F 84.9 °F 68.0 °F 62% 29.97 in 10.0 mi WSW 8.1 mph - N/A   Clear
2:53 PM 82.9 °F 85.0 °F 66.0 °F 56% 29.95 in 10.0 mi SW 9.2 mph - N/A   Clear
3:53 PM 82.0 °F 84.5 °F 66.9 °F 60% 29.94 in 10.0 mi SW 9.2 mph - N/A   Clear
4:53 PM 82.0 °F 84.9 °F 68.0 °F 62% 29.95 in 10.0 mi South 10.4 mph - N/A   Partly Cloudy
5:53 PM 80.1 °F 82.7 °F 68.0 °F 67% 29.97 in 10.0 mi South 10.4 mph - N/A   Mostly Cloudy
6:53 PM 79.0 °F - 68.0 °F 69% 29.99 in 10.0 mi South 11.5 mph - N/A   Overcast
7:53 PM 79.0 °F - 68.0 °F 69% 30.01 in 10.0 mi SSE 8.1 mph - N/A   Mostly Cloudy
8:53 PM 78.1 °F - 69.1 °F 74% 30.04 in 10.0 mi SE 5.8 mph - N/A   Overcast
9:53 PM 78.1 °F - 69.1 °F 74% 30.05 in 10.0 mi East 5.8 mph - N/A   Overcast
10:53 PM 78.1 °F - 68.0 °F 71% 30.05 in 10.0 mi SE 3.5 mph - N/A   Overcast
11:53 PM 78.1 °F - 69.1 °F 74% 30.04 in 10.0 mi South 4.6 mph - N/A   Mostly Cloudy